Location: ?ejeti?ky
(50.4060°N, 14.9016°E)
Time: 19:26:40
(UTC+00:00)

X-37B - Pass Details

Date: 12 December 2021
Orbit: 334 x 337 km, 45.0° (Epoch: 11 January)

Event Time Altitude Azimuth Distance (km) Brightness Sun altitude
Rises 17:20:50 0° 256° (WSW) 2,104 5.8 -21.7°
Reaches altitude 10° 17:22:59 10° 243° (WSW) 1,267 4.2 -22.1°
Enters shadow 17:24:37 23° 214° (SW) 778 2.5 -22.3°
